Location: *
(53.9002°N, 27.5624°E)
Time: 14:47:35
(UTC+00:00)

Cosmos 724 - Pass Details

Date: 12 November 2019
Orbit: 861 x 934 km, 65.6° (Epoch: 13 December)

Event Time Altitude Azimuth Distance (km) Brightness Sun altitude
Rises 16:42:45 0° 315° (NW) 3,504 8.1 -21.4°
Reaches altitude 10° 16:45:16 10° 317° (NW) 2,551 7.2 -21.8°
Maximum altitude 16:51:12 82° 45° (NE) 887 4.1 -22.7°
Enters shadow 16:53:08 44° 128° (SE) 1,183 4.6 -22.9°
